STARLINK-35852

Last updated on Fri Dec 19 2025 00:02:08 GMT+0000 (Coordinated Universal Time)

1 66889U 25283M 25352.58336806 -.01371520 00000+0 -86393-2 0 9994 2 66889 53.1549 44.3964 0001244 58.1118 85.0663 15.78615641 3365
UTC large
Height (km)
Speed (km/s)
/
Latitude / Longitude
Inclination (degrees)
Orbital Period (minutes)
Azimuth
Elevation
Range (km)
Doppler Factor

Next 0 passes for location: London (51.5072 / 0.1276)

Sorry there are no passes over London.